Overview Statistics Trail Chart Weather Telemetry Raw packets
 

This is the latest recevied weather packets stored in our database for station/object 4S6DRJ-13. If no packets are shown the sender has not sent any weather packets the latest 10 day(s).

<< 554 555 556 557 558 559 560 >>
Time Temp. Humidity Pressure Rain* Wind** Luminosity Snow
1787594770 27.22° C 83% 1011.4 hPa 0 mm 0.89 m/s, 205° 0 W/m² -
1787594708 27.22° C 83% 1011.3 hPa 0 mm 0 m/s 0 W/m² -
1787594648 27.22° C 83% 1011.5 hPa 0.51 mm 0.45 m/s, 164° 0 W/m² -
1787594586 27.22° C 83% 1011.4 hPa 0.51 mm 0.89 m/s, 254° 0 W/m² -
1787594526 27.22° C 83% 1011.3 hPa 0.51 mm 0.89 m/s, 230° 0 W/m² -
1787594464 27.22° C 83% 1011.4 hPa 0.51 mm 0.89 m/s, 201° 0 W/m² -
1787594403 27.22° C 83% 1011.5 hPa 0.51 mm 0.89 m/s, 213° 0 W/m² -
1787594343 27.78° C 83% 1011.5 hPa 0.51 mm 0.89 m/s, 236° 0 W/m² -
1787594281 27.78° C 83% 1011.3 hPa 0.51 mm 0.89 m/s, 237° 0 W/m² -
1787594220 27.78° C 83% 1011.2 hPa 0.51 mm 0.89 m/s, 192° 0 W/m² -
1787594159 27.78° C 83% 1011.5 hPa 0.51 mm 0 m/s 0 W/m² -
1787594098 27.78° C 83% 1011.4 hPa 0.51 mm 0 m/s 0 W/m² -
1787594037 27.78° C 83% 1011.7 hPa 0.51 mm 0.45 m/s, 310° 0 W/m² -
1787593976 27.78° C 83% 1011.5 hPa 0.51 mm 0.45 m/s, 240° 0 W/m² -
1787593916 27.78° C 83% 1011.3 hPa 0.51 mm 0 m/s 0 W/m² -
1787593854 27.78° C 83% 1011.5 hPa 0.51 mm 0.45 m/s, 177° 0 W/m² -
1787593794 27.78° C 83% 1011.5 hPa 0.51 mm 0 m/s 0 W/m² -
1787593732 27.78° C 83% 1011.6 hPa 0.51 mm 0.89 m/s, 227° 0 W/m² -
1787593671 27.78° C 84% 1011.5 hPa 0.51 mm 0.89 m/s, 242° 0 W/m² -
1787593611 27.78° C 84% 1011.5 hPa 0.51 mm 2.24 m/s, 236° 0 W/m² -
1787593549 27.78° C 84% 1011.6 hPa 0.51 mm 0.45 m/s, 236° 0 W/m² -
1787593488 27.78° C 84% 1011.6 hPa 0.51 mm 0.89 m/s, 234° 0 W/m² -
1787593427 27.78° C 84% 1011.6 hPa 0.51 mm 1.34 m/s, 270° 0 W/m² -
1787593366 27.78° C 85% 1011.6 hPa 0.51 mm 0.45 m/s, 209° 0 W/m² -
1787593305 27.78° C 85% 1011.8 hPa 0.51 mm 0.45 m/s, 244° 0 W/m² -

* Rain latest hour (hover to see other rain measurements)
** Current wind speed in m/s (hover to see current wind gust speed)